Location: Newark
(15.4608°S, 41.1635°W)
Time: 00:38:04
(UTC+00:00)

S-56A Canister/Altair - Visible Passes

Search period start: 31 July 2021 00:00
Search period end: 10 August 2021 00:00
Orbit: 631 x 2501 km, 38.9° (Epoch: 30 July)

Date Brightness Start Highest point End Pass type
(mag) Time Alt. Az. Time Alt. Az. Time Alt. Az.
04 Aug 11.3 00:35:06 10° NNW 00:35:39 11° NNW 00:35:39 11° NNW visible
05 Aug 11.1 00:02:01 10° NNW 00:04:42 16° N 00:04:42 16° N visible
05 Aug 10.8 23:29:01 10° N 23:33:48 18° NNE 23:33:48 18° NNE visible
06 Aug 10.7 22:56:07 10° N 23:02:58 19° NNE 23:02:58 19° NNE visible
07 Aug 11.3 00:59:00 10° NW 01:00:24 14° NW 01:00:24 14° NW visible
07 Aug 10.7 22:23:23 10° N 22:30:48 17° NE 22:32:12 17° NE visible
08 Aug 10.8 00:25:27 10° NW 00:29:38 23° NNW 00:29:38 23° NNW visible
08 Aug 10.8 21:50:54 10° N 21:57:24 15° NE 22:01:28 12° ENE visible
08 Aug 10.4 23:51:57 10° NNW 23:58:55 33° NNW 23:58:55 33° NNW visible
09 Aug 9.5 08:24:35 10° S 08:27:15 15° SSE 08:30:03 10° ESE visible
09 Aug 11.0 21:18:51 10° NNE 21:23:56 13° NE 21:28:34 10° ENE visible
09 Aug 10.0 23:18:29 10° NNW 23:28:16 42° N 23:28:16 42° N visible
